Regional Weather Roundup
Issued by NWS New Orleans/Baton Rouge, LA

Home | Current Version | Previous Version | Graphics & Text | Print | Product List | Glossary On
Versions: 1 2 3 4 5 6 7 8 9 10 11 12 13 14 15 16 17 18 19 20 21 22 23 24 25 26 27 28 29 30 31 32 33 34 35 36 37 38 39 40 41 42 43 44 45 46 47 48 49 50
954
ASUS44 KLIX 012310
RWRLIX
NEW ORLEANS REGIONAL WEATHER ROUNDUP
NATIONAL WEATHER SERVICE NEW ORLEANS LA
600 PM CDT MON SEP 01 2014

NOTE: "FAIR" INDICATES FEW OR NO CLOUDS BELOW 12,000 FEET WITH NO
      SIGNIFICANT WEATHER AND/OR OBSTRUCTIONS TO VISIBILITY.
      SKY/WX - SKY CONDITION AND SIGNIFICANT WEATHER.
      TMP - AIR TEMPERATURE.     DP    - DEWPOINT TEMPERATURE.
      RH  - RELATIVE HUMIDITY.   PRES  - PRESSURE.
      HI  - HEAT INDEX.          WCI   - WIND CHILL INDEX.

*  THESE STATIONS ARE NOT NWS OR FAA STATIONS AND ARE NOT UNDER
   NWS QUALITY CONTROL.

LAZ038-040-048-061>063-065>067-069-020000-
SOUTHEAST LOUISIANA

CITY           SKY/WX    TMP DP  RH WIND       PRES   REMARKS
N.O. AUDUBON     N/A     86 N/A N/A MISG        N/A
N.O. INTL ARPT CLOUDY    85  75  72 SE7       29.99S
N.O. LAKEFRONT CLOUDY    80  77  90 SE9       30.00S
N.O. DOWNTOWN*   N/A     82  73  74 SE3       30.00R
SLIDELL        CLOUDY    81  74  79 S6        30.00F
BATON ROUGE    CLOUDY    84  74  71 E8        29.99R
BOOTHVILLE     MOSUNNY   86  76  71 SE8       30.01S HX  96
BELLE CHASSE   PTSUNNY   86  72  62 S10       29.99R
BOGALUSA*      MOCLDY    84  75  72 SE16G23   30.03R THUNDER
GALLIANO*      NOT AVBL
NEW ROADS*     MOCLDY    82  78  85 NE5       29.99R THUNDER
GONZALES*        N/A     85  79  81 CALM      29.98R HX  97
HAMMOND*       CLOUDY    82  72  69 SE5       30.02R
HOUMA*         MOSUNNY   84  75  74 S8        29.99S
PORT FOURCHON* CLEAR     86  75  70 S10G17    30.01R HX  95

$$

MSZ070-080>082-020000-
SOUTHERN MISSISSIPPI

CITY           SKY/WX    TMP DP  RH WIND       PRES   REMARKS
MCCOMB         CLOUDY    77  73  87 CALM      30.02S
GULFPORT       MOSUNNY   87  76  69 S12       30.01S HX  97
BILOXI         PTSUNNY   86  74  68 SE9       30.02R
PASCAGOULA     PTSUNNY   86  76  71 S10       30.03R HX  96
STENNIS ARPT*  MOSUNNY  N/A N/A N/A SE8       30.01S

$$

COASTAL OBSERVATIONS
LAKE AND NEARSHORE STATIONS

STATION/POSITION TIME  TEMP    WIND        PRES    WAVE
                       AIR SEA DIR/SP/G            HT/PER
                 (UTC) (F)     (DEG/KT/KT) (MB)    (FT/S)
PASCAGOULA       2300   87     170/  8/ 13 1016.3
WAVELAND YACHT   2300   85     160/ 14/ 16 1015.5
GRAND ISLE       2300   85 85  150/  7/ 12 1016.7
SOUTHWEST PASS   2300   86 91  160/  9/ 13 1016.3
NEW CANAL        2300   80 82   CALM  /  2 1016.2
SHELL BEACH      2300   81 81  130/ 10/ 13 1015.9

OFFSHORE STATIONS

STATION/POSITION TIME  TEMP    WIND        PRES    WAVE
                       AIR SEA DIR/SP/G            HT/PER
                 (UTC) (F)     (DEG/KT/KT) (MB)    (FT/S)

$$




USA.gov is the U.S. government's official web portal to all federal, state and local government web resources and services.